Location: Newark
(25.0000°N, 73.5000°E)
Time: 19:35:59
(UTC+00:00)

Altair - Pass Details

Date: 06 March 2021
Orbit: 1501 x 1683 km, 47.2° (Epoch: 10 April)

Event Time Altitude Azimuth Distance (km) Brightness Sun altitude
Rises 11:33:01 0° 226° (SW) 4,640 11.1 20.8°
Reaches altitude 10° 11:36:02 10° 226° (SW) 3,650 10.8 20.2°
Maximum altitude 11:45:12 87° 314° (NW) 1,504 7.9 18.2°
Drops below altitude 10° 11:54:29 10° 46° (NE) 3,681 9.0 16.2°
Sets 11:57:32 0° 47° (NE) 4,681 9.5 15.5°
